Regional Weather Roundup
Issued by NWS

Home | Current Version | Previous Version | Graphics & Text | Print | Product List | Glossary On
Versions: 1 2 3 4 5 6 7 8 9 10 11 12 13 14 15 16 17 18 19 20 21 22 23 24 25 26 27 28 29 30 31 32 33 34 35 36 37 38 39 40 41 42 43 44 45 46 47 48 49 50
000
ASUS43 KTOP 241208
RWRKS

WEATHER ROUNDUP FOR KANSAS
NATIONAL WEATHER SERVICE GOODLAND KS
700 AM CDT TUE MAY 24 2016

NOTE:  "FAIR" INDICATES FEW OR NO CLOUDS BELOW 12,000 FEET WITH NO
SIGNIFICANT WEATHER AND/OR OBSTRUCTIONS TO VISIBILITY.

KSZ001>006-013>018-027>032-041>047-241300-
NORTHWEST KANSAS

CITY           SKY/WX    TMP DP  RH WIND       PRES   REMARKS
GOODLAND       PTCLDY    52  45  77 E7        29.88R
6HR MIN TEMP:  51; 6HR MAX TEMP:  56;

HAYS           CLOUDY    59  48  67 E22G28    29.87F
HILL CITY      TSTM      58  57  97 S6        29.90R FOG
6HR MIN TEMP:  58; 6HR MAX TEMP:  67; 6HR PCP:  1.76;

RUSSELL        CLOUDY    58  56  93 E18       29.89S
6HR MIN TEMP:  57; 6HR MAX TEMP:  68; 6HR PCP:  0.77;

$$

KSZ061>065-074>080-084>089-241300-
SOUTHWEST KANSAS

CITY           SKY/WX    TMP DP  RH WIND       PRES   REMARKS
DODGE CITY     CLOUDY    65  65 100 NE8       29.85R
6HR MIN TEMP:  64; 6HR MAX TEMP:  69;

ELKHART          N/A     61  60  97 SW3         N/A
GARDEN CITY    MOCLDY    64  59  83 NE10      29.85R
6HR MIN TEMP:  61; 6HR MAX TEMP:  70; 6HR PCP: TRACE;

GREAT BEND     CLOUDY    57  48  72 NE20G28   29.91R
LIBERAL        MOCLDY    68  63  83 S13       29.81R
PRATT          CLOUDY    67  64  92 NE9       29.88R
6HR MIN TEMP:  67; 6HR MAX TEMP:  68;

$$

KSZ066>073-081>083-090>101-241300-
SOUTHEAST KANSAS

CITY           SKY/WX    TMP DP  RH WIND       PRES   REMARKS
CHANUTE        CLOUDY    67  63  87 CALM      29.91R
6HR MIN TEMP:  65; 6HR MAX TEMP:  67; 6HR PCP: TRACE;

COFFEYVILLE    CLOUDY    70  64  81 SE9       29.88R
6HR MIN TEMP:  65; 6HR MAX TEMP:  70;

HUTCHINSON     CLOUDY    66  64  93 NE16G23   29.92R
6HR MIN TEMP:  66; 6HR MAX TEMP:  70; 6HR PCP: TRACE;

MEDICINE LODGE   N/A     70  67  90 E5        29.83R
NEWTON         CLOUDY    61  55  82 E9        29.94R
PARSONS        CLOUDY    69  65  86 SE3       29.91R
6HR MIN TEMP:  67; 6HR MAX TEMP:  69;

WICHITA INTL   CLOUDY    69  66  90 NE8       29.90R
6HR MIN TEMP:  69; 6HR MAX TEMP:  70; 6HR PCP: TRACE;

WICHITA JABRA  LGT RAIN  67  67 100 NE8       29.91R
6HR MIN TEMP:  66; 6HR MAX TEMP:  68; 6HR PCP: TRACE;

WICHITA MCCONL CLOUDY    68  66  94 E12       29.92R
WINFIELD       CLOUDY    70  67  90 NE6       29.88R
6HR MIN TEMP:  68; 6HR MAX TEMP:  70;

$$

KSZ007>012-019>026-033>040-048>060-102>105-241300-
NORTHEAST KANSAS

CITY           SKY/WX    TMP DP  RH WIND       PRES   REMARKS
CONCORDIA      LGT RAIN  60  58  92 E6        29.93R
6HR MIN TEMP:  60; 6HR MAX TEMP:  67; 6HR PCP:  0.51;

EMPORIA        CLOUDY    61  58  90 E9        29.92F
6HR MIN TEMP:  60; 6HR MAX TEMP:  65; 6HR PCP:  0.08;

LAWRENCE       CLOUDY    62  60  93 SE8       29.91F
6HR MIN TEMP:  59; 6HR MAX TEMP:  63; 6HR PCP:  0.31;

MANHATTAN      CLOUDY    62  58  86 CALM      29.89S
6HR MIN TEMP:  60; 6HR MAX TEMP:  69; 6HR PCP:  0.55;

MARYSVILLE     RAIN      63  59  88 W8        29.92R
OLATHE IND     TSTM      62  62 100 CALM      29.94S
6HR MIN TEMP:  61; 6HR MAX TEMP:  64; 6HR PCP:  0.23;

OLATHE EXE     TSTM      62  61  96 S5        29.94R FOG
6HR MIN TEMP:  60; 6HR MAX TEMP:  63; 6HR PCP:  0.26;

SALINA         CLOUDY    63  60  90 MISG      29.98R THUNDER
6HR MIN TEMP:  63; 6HR MAX TEMP:  70; 6HR PCP:  0.04;

TOPEKA BILLARD MOCLDY    61  59  93 S3        29.91R
6HR MIN TEMP:  60; 6HR MAX TEMP:  65; 6HR PCP:  0.39;

TOPEKA FORBES  CLOUDY    61  59  93 SE7       29.90R
6HR MIN TEMP:  61; 6HR MAX TEMP:  65; 6HR PCP:  0.37;

$$



USA.gov is the U.S. government's official web portal to all federal, state and local government web resources and services.